TimeCEST,TemperatureF,Dew PointF,Humidity,Sea Level PressureIn,VisibilityMPH,Wind Direction,Wind SpeedMPH,Gust SpeedMPH,PrecipitationIn,Events,Conditions,WindDirDegrees,DateUTC
12:55 AM,69.8,68.0,94,29.65,-9999.0,North,-9999.0,-,N/A,,Scattered Clouds,0,2013-09-29 22:55:00
1:55 AM,69.8,68.0,94,29.62,-9999.0,North,-9999.0,-,N/A,,Scattered Clouds,0,2013-09-29 23:55:00
2:00 AM,70,68,90,29.65,4,North,4.6,,,,Mostly Cloudy,350,2013-09-30 00:00:00
2:55 AM,68.0,66.2,94,29.59,-9999.0,North,-9999.0,-,N/A,,Scattered Clouds,0,2013-09-30 00:55:00
3:55 AM,66.2,64.4,94,29.59,-9999.0,North,-9999.0,-,N/A,,Scattered Clouds,0,2013-09-30 01:55:00
4:55 AM,66.2,64.4,94,29.59,-9999.0,North,-9999.0,-,N/A,,Partly Cloudy,0,2013-09-30 02:55:00
5:55 AM,66.2,64.4,94,29.59,-9999.0,North,-9999.0,-,N/A,,Scattered Clouds,0,2013-09-30 03:55:00
6:55 AM,64.4,62.6,94,29.59,-9999.0,North,-9999.0,-,N/A,,Scattered Clouds,0,2013-09-30 04:55:00
7:55 AM,64.4,62.6,94,29.59,-9999.0,North,-9999.0,-,N/A,,Scattered Clouds,0,2013-09-30 05:55:00
8:00 AM,64,63,94,29.60,10,ESE,4.6,,,,Mostly Cloudy,110,2013-09-30 06:00:00
8:55 AM,64.4,62.6,94,29.59,-9999.0,North,-9999.0,-,N/A,,Scattered Clouds,0,2013-09-30 06:55:00
9:55 AM,68.0,64.4,88,29.59,-9999.0,North,-9999.0,-,N/A,,Scattered Clouds,0,2013-09-30 07:55:00
10:55 AM,73.4,62.6,69,29.59,-9999.0,North,-9999.0,-,N/A,,Scattered Clouds,0,2013-09-30 08:55:00
11:55 AM,77.0,59.0,54,29.59,-9999.0,North,-9999.0,-,N/A,,Scattered Clouds,0,2013-09-30 09:55:00
12:55 PM,77.0,60.8,57,29.56,-9999.0,North,-9999.0,-,N/A,,Scattered Clouds,0,2013-09-30 10:55:00
1:55 PM,78.8,57.2,47,29.56,-9999.0,North,-9999.0,-,N/A,,Scattered Clouds,0,2013-09-30 11:55:00
2:00 PM,79,57,37,29.58,19,West,10.4,,,,Scattered Clouds,260,2013-09-30 12:00:00
2:55 PM,75.2,59.0,57,29.56,-9999.0,North,-9999.0,-,N/A,,Scattered Clouds,0,2013-09-30 12:55:00
3:55 PM,77.0,60.8,57,29.56,-9999.0,North,-9999.0,-,N/A,,Scattered Clouds,0,2013-09-30 13:55:00
4:55 PM,68.0,64.4,88,29.56,-9999.0,North,-9999.0,-,N/A,Rain,Light Rain,0,2013-09-30 14:55:00
5:04 PM,35.6,32.0,87,29.56,-9999.0,North,-9999.0,-,N/A,Rain,Rain,0,2013-09-30 15:04:00
5:20 PM,68.0,64.4,88,29.56,-9999.0,North,-9999.0,-,N/A,Rain,Light Rain,0,2013-09-30 15:20:00
5:55 PM,66.2,66.2,100,29.59,-9999.0,North,-9999.0,-,N/A,Rain,Light Rain,0,2013-09-30 15:55:00
6:55 PM,66.2,66.2,100,29.59,-9999.0,North,-9999.0,-,N/A,,Scattered Clouds,0,2013-09-30 16:55:00
7:55 PM,66.2,64.4,94,29.59,-9999.0,North,-9999.0,-,N/A,,Scattered Clouds,0,2013-09-30 17:55:00
8:00 PM,66,65,96,29.61,7,Calm,Calm,,,,Partly Cloudy,,2013-09-30 18:00:00
8:55 PM,66.2,62.6,88,29.62,-9999.0,North,-9999.0,-,N/A,,Scattered Clouds,0,2013-09-30 18:55:00
9:55 PM,66.2,64.4,94,29.62,-9999.0,North,-9999.0,-,N/A,,Scattered Clouds,0,2013-09-30 19:55:00
10:55 PM,66.2,62.6,88,29.62,-9999.0,North,-9999.0,-,N/A,,Scattered Clouds,0,2013-09-30 20:55:00
11:55 PM,64.4,62.6,94,29.65,-9999.0,North,-9999.0,-,N/A,,Partly Cloudy,0,2013-09-30 21:55:00